Tracking 29018 objects as of 15-Jun-2024
HD Live streaming from Space Station
objects crossing your sky now

STARLINK-6366

Track STARLINK-6366 now!
10-day predictions
STARLINK-6366 is classified as:


NORAD ID: 57380
Int'l Code: 2023-099BE
Perigee: 565.3 km
Apogee: 567.2 km
Inclination: 43.0 °
Period: 95.8 minutes
Semi major axis: 6937 km
RCS: Unknown
Launch date: July 16, 2023
Source: United States (US)
Launch site: AIR FORCE EASTERN TEST RANGE (AFETR)
Your satellite tracking list
Your tracking list is empty




NASA's NSSDC Master Catalog

Two Line Element Set (TLE):
1 57380U 23099BE  24166.73340250  .00004183  00000-0  32455-3 0  9997
2 57380  43.0055  49.2204 0001359 267.5140  92.5547 15.02532002 52083
Source of the keplerian elements: AFSPC